Weather History for KRZL - May, 2014

Change the Weather History Date:

Saturday, May 24, 2014

  Actual Average (KVPZ) Record (KVPZ)
Temperature  
Mean Temperature 58 °F 62 °F  
Max Temperature 75 °F 73 °F 90 °F (2010)
Min Temperature 42 °F 51 °F 39 °F (2013)
Degree Days  
Heating Degree Days 6 5  
Month to date heating degree days 190  
Since 1 July heating degree days 6249  
Cooling Degree Days 0 2  
Month to date cooling degree days 26  
Year to date cooling degree days 31  
Growing Degree Days 8 (Base 50)    
Moisture  
Dew Point 46 °F    
Average Humidity 64    
Maximum Humidity 100    
Minimum Humidity 29    
Precipitation  
Precipitation 0.00 in 0.13 in 0.52 in (2006)
Month to date precipitation 3.05  
Year to date precipitation 12.23  
Sea Level Pressure  
Sea Level Pressure 30.18 in    
Wind  
Wind Speed 3 mph (NNE)    
Max Wind Speed 7 mph    
Max Gust Speed -    
Visibility 10 miles    
Events      
T = Trace of Precipitation, MM = Missing Value Source: NWS Daily Summary

Daily Weather History Graph

Daily Weather History Graph

Search for Another Location

Airport or City:

Trip Planner

Search our weather history database for the weather conditions in past years. The results will help you decide how hot, cold, wet, or windy it might be!

Date:

Astronomy

May. 24, 2014 Rise Set
Actual Time 5:23 AM CDT 8:08 PM CDT
Civil Twilight 4:51 AM CDT 8:40 PM CDT
Nautical Twilight 4:11 AM CDT 9:20 PM CDT
Astronomical Twilight 3:25 AM CDT 10:06 PM CDT
Moon 2:54 AM CDT (5/24) 4:03 PM CDT (5/24)
Length of Visible Light 15h 48m
Length of Day
14h 44m
Waning Crescent, 18% of the Moon is Illuminated
May 24
Waning Crescent
May 28
New
Jun 5
First Quarter
Jun 12
Full
Jun 19
Last Quarter

Hourly Weather History & Observations

Time (CDT) Temp. Windchill Dew Point Humidity Pressure Visibility Wind Dir Wind Speed Gust Speed Precip Events Conditions
12:15 AM 50.0 °F - 44.6 °F 82% 30.20 in 10.0 mi North 4.6 mph - N/A   Clear
12:35 AM 50.0 °F - 44.6 °F 82% 30.19 in 10.0 mi North 4.6 mph - N/A   Clear
12:55 AM 50.0 °F - 44.6 °F 82% 30.20 in 10.0 mi North 4.6 mph - N/A   Clear
1:15 AM 48.2 °F - 44.6 °F 87% 30.20 in 10.0 mi North 4.6 mph - N/A   Clear
1:35 AM 48.2 °F - 44.6 °F 87% 30.19 in 10.0 mi North 5.8 mph - N/A   Clear
1:55 AM 48.2 °F - 44.6 °F 87% 30.19 in 10.0 mi Calm Calm - N/A   Clear
2:15 AM 46.4 °F - 44.6 °F 93% 30.18 in 10.0 mi Calm Calm - N/A   Clear
2:35 AM 46.4 °F - 44.6 °F 93% 30.19 in 10.0 mi Calm Calm - N/A   Clear
2:55 AM 44.6 °F - 44.6 °F 100% 30.19 in 10.0 mi Calm Calm - N/A   Clear
3:15 AM 46.4 °F - 44.6 °F 93% 30.19 in 10.0 mi Calm Calm - N/A   Clear
3:35 AM 44.6 °F - 44.6 °F 100% 30.19 in 10.0 mi Calm Calm - N/A   Clear
3:55 AM 44.6 °F - 44.6 °F 100% 30.19 in 10.0 mi Calm Calm - N/A   Clear
4:15 AM 44.6 °F - 44.6 °F 100% 30.19 in 10.0 mi Calm Calm - N/A   Clear
4:35 AM 44.6 °F - 44.6 °F 100% 30.20 in 10.0 mi Calm Calm - N/A   Clear
4:55 AM 42.8 °F - 42.8 °F 100% 30.20 in 10.0 mi Calm Calm - N/A   Clear
5:15 AM 44.6 °F 42.2 °F 44.6 °F 100% 30.20 in 10.0 mi NNE 4.6 mph - N/A   Clear
5:35 AM 44.6 °F 42.2 °F 44.6 °F 100% 30.19 in 10.0 mi North 4.6 mph - N/A   Clear
5:55 AM 44.6 °F - 44.6 °F 100% 30.21 in 10.0 mi Calm Calm - N/A   Clear
6:15 AM 46.4 °F - 44.6 °F 93% 30.21 in 10.0 mi Calm Calm - N/A   Clear
6:35 AM 46.4 °F 44.3 °F 46.4 °F 100% 30.21 in 10.0 mi NNE 4.6 mph - N/A   Clear
6:55 AM 50.0 °F - 48.2 °F 94% 30.22 in 10.0 mi NNE 4.6 mph - N/A   Clear
7:15 AM 50.0 °F - 48.2 °F 94% 30.22 in 10.0 mi NNE 5.8 mph - N/A   Clear
7:35 AM 51.8 °F - 50.0 °F 94% 30.24 in 10.0 mi NNE 3.5 mph - N/A   Clear
7:55 AM 53.6 °F - 48.2 °F 82% 30.24 in 10.0 mi NE 3.5 mph - N/A   Clear
8:15 AM 55.4 °F - 50.0 °F 82% 30.24 in 10.0 mi Calm Calm - N/A   Clear
8:35 AM 57.2 °F - 50.0 °F 77% 30.24 in 10.0 mi SE 3.5 mph - N/A   Clear
8:55 AM 59.0 °F - 50.0 °F 72% 30.24 in 10.0 mi Calm Calm - N/A   Clear
9:15 AM 60.8 °F - 50.0 °F 68% 30.24 in 10.0 mi Calm Calm - N/A   Clear
9:35 AM 62.6 °F - 50.0 °F 63% 30.24 in 10.0 mi South 3.5 mph - N/A   Clear
9:55 AM 62.6 °F - 50.0 °F 63% 30.24 in 10.0 mi South 3.5 mph - N/A   Clear
10:15 AM 62.6 °F - 50.0 °F 63% 30.23 in 10.0 mi Calm Calm - N/A   Clear
10:35 AM 64.4 °F - 50.0 °F 59% 30.22 in 10.0 mi Calm Calm - N/A   Clear
10:55 AM 66.2 °F - 46.4 °F 49% 30.21 in 10.0 mi SSE 4.6 mph - N/A   Clear
11:15 AM 68.0 °F - 46.4 °F 46% 30.21 in 10.0 mi SSE 4.6 mph - N/A   Clear
11:35 AM 68.0 °F - 46.4 °F 46% 30.21 in 10.0 mi South 3.5 mph - N/A   Clear
11:55 AM 69.8 °F - 44.6 °F 40% 30.21 in 10.0 mi South 3.5 mph - N/A   Clear
12:15 PM 69.8 °F - 44.6 °F 40% 30.20 in 10.0 mi Calm Calm - N/A   Clear
1:15 PM 71.6 °F - 44.6 °F 38% 30.18 in 10.0 mi NE 4.6 mph - N/A   Clear
1:35 PM 73.4 °F - 41.0 °F 31% 30.18 in 10.0 mi SSW 3.5 mph - N/A   Clear
1:55 PM 73.4 °F - 42.8 °F 33% 30.17 in 10.0 mi Calm Calm - N/A   Clear
2:15 PM 73.4 °F - 42.8 °F 33% 30.17 in 10.0 mi South 3.5 mph - N/A   Clear
2:35 PM 73.4 °F - 42.8 °F 33% 30.17 in 10.0 mi SW 4.6 mph - N/A   Clear
2:55 PM 73.4 °F - 41.0 °F 31% 30.16 in 10.0 mi SW 4.6 mph - N/A   Clear
3:15 PM 73.4 °F - 41.0 °F 31% 30.16 in 10.0 mi Calm Calm - N/A   Clear
3:35 PM 73.4 °F - 41.0 °F 31% 30.15 in 10.0 mi Calm Calm - N/A   Clear
3:55 PM 75.2 °F - 41.0 °F 29% 30.15 in 10.0 mi WSW 4.6 mph - N/A   Clear
4:15 PM 73.4 °F - 42.8 °F 33% 30.14 in 10.0 mi SE 4.6 mph - N/A   Clear
4:35 PM 73.4 °F - 41.0 °F 31% 30.14 in 10.0 mi West 3.5 mph - N/A   Clear
4:55 PM 75.2 °F - 41.0 °F 29% 30.14 in 10.0 mi Calm Calm - N/A   Clear
5:15 PM 73.4 °F - 41.0 °F 31% 30.14 in 10.0 mi Calm Calm - N/A   Clear
5:35 PM 73.4 °F - 41.0 °F 31% 30.13 in 10.0 mi Calm Calm - N/A   Clear
5:55 PM 73.4 °F - 41.0 °F 31% 30.13 in 10.0 mi Calm Calm - N/A   Clear
6:15 PM 73.4 °F - 41.0 °F 31% 30.13 in 10.0 mi Calm Calm - N/A   Clear
6:35 PM 73.4 °F - 41.0 °F 31% 30.13 in 10.0 mi North 4.6 mph - N/A   Clear
6:55 PM 73.4 °F - 42.8 °F 33% 30.13 in 10.0 mi North 3.5 mph - N/A   Clear
7:15 PM 73.4 °F - 42.8 °F 33% 30.13 in 10.0 mi North 3.5 mph - N/A   Clear
7:35 PM 71.6 °F - 48.2 °F 43% 30.13 in 10.0 mi North 5.8 mph - N/A   Clear
7:55 PM 68.0 °F - 51.8 °F 56% 30.13 in 10.0 mi NNE 5.8 mph - N/A   Clear
8:15 PM 68.0 °F - 51.8 °F 56% 30.13 in 10.0 mi NNE 6.9 mph - N/A   Clear
8:35 PM 66.2 °F - 51.8 °F 60% 30.14 in 10.0 mi NNE 6.9 mph - N/A   Clear
8:55 PM 64.4 °F - 51.8 °F 64% 30.14 in 10.0 mi NNE 6.9 mph - N/A   Clear
9:15 PM 64.4 °F - 51.8 °F 64% 30.14 in 10.0 mi North 4.6 mph - N/A   Clear
9:35 PM 62.6 °F - 51.8 °F 68% 30.15 in 10.0 mi North 4.6 mph - N/A   Clear
10:15 PM 62.6 °F - 51.8 °F 68% 30.16 in 10.0 mi Calm Calm - N/A   Clear
10:35 PM 60.8 °F - 51.8 °F 72% 30.15 in 10.0 mi NNE 3.5 mph - N/A   Clear
10:55 PM 60.8 °F - 51.8 °F 72% 30.15 in 10.0 mi Calm Calm - N/A   Clear
11:15 PM 60.8 °F - 51.8 °F 72% 30.15 in 10.0 mi NNE 5.8 mph - N/A   Clear
11:35 PM 60.8 °F - 50.0 °F 68% 30.14 in 10.0 mi NNE 4.6 mph - N/A   Clear
11:55 PM 60.8 °F - 50.0 °F 68% 30.15 in 10.0 mi NNE 3.5 mph - N/A   Clear